Location: Unspecified
(0.0000°N, 0.0000°E)
Time: 06:05:46
(UTC+02:00)

Resurs 01 Rocket - Visible Passes

Search period start: 30 July 2015 00:00
Search period end: 09 August 2015 00:00
Orbit: 634 x 646 km, 98.2° (Epoch: 29 July)

Date Brightness Start Highest point End Pass type
(mag) Time Alt. Az. Time Alt. Az. Time Alt. Az.
30 Jul 4.6 21:37:58 10° SW 21:40:04 13° W 21:41:52 10° WNW visible
01 Aug 2.1 20:46:10 10° S 20:50:34 63° WSW 20:54:56 10° NNW visible
02 Aug 3.6 21:10:08 10° SSW 21:14:01 29° WSW 21:17:48 10° NW visible
03 Aug 4.5 21:35:03 10° SW 21:37:31 14° W 21:39:41 10° WNW visible
05 Aug 2.0 20:43:36 10° S 20:48:01 70° WSW 20:52:24 10° NNW visible
06 Aug 3.4 21:07:28 10° SSW 21:11:27 32° WSW 21:15:21 10° NW visible
07 Aug 4.5 21:32:12 10° SW 21:34:56 15° W 21:37:27 10° WNW visible
